Location: Feydey
(46.3431°N, 7.0106°E)
Time: 19:14:48
(UTC+00:00)

Cosmos 1328 - Pass Details

Date: 20 October 2021
Orbit: 529 x 552 km, 82.5° (Epoch: 03 December)

Event Time Altitude Azimuth Distance (km) Brightness Sun altitude
Rises 19:24:31 0° 329° (NNW) 2,733 8.0 -29.5°
Reaches altitude 10° 19:28:14 10° 293° (WNW) 1,834 7.4 -30.1°
Maximum altitude 19:29:21 11° 277° (W) 1,768 7.3 -30.3°
Drops below altitude 10° 19:30:29 10° 261° (W) 1,831 7.2 -30.5°
Sets 19:34:11 0° 225° (SW) 2,719 7.7 -31.1°
